Regional Weather Roundup
Issued by NWS

Home | Current Version | Previous Version | Graphics & Text | Print | Product List | Glossary Off
Versions: 1 2 3 4 5 6 7 8 9 10 11 12 13 14 15 16 17 18 19 20 21 22 23 24 25 26 27 28 29 30 31 32 33 34 35 36 37 38 39 40 41 42 43 44 45 46 47 48 49 50

024
ASUS43 KMKX 220700
RWRWI

WISCONSIN REGIONAL WEATHER ROUNDUP
NATIONAL WEATHER SERVICE MILWAUKEE/SULLIVAN WI
100 AM CST WED FEB 22 2017

NOTE: "FAIR" INDICATES FEW OR NO CLOUDS BELOW 12,000 FEET WITH NO
SIGNIFICANT WEATHER AND/OR OBSTRUCTIONS TO VISIBILITY.

WIZ001-002-006>008-014>016-023>028-220800-
NORTHWEST WISCONSIN

CITY           SKY/WX    TMP DP  RH WIND       PRES   REMARKS
SUPERIOR ARPT  CLOUDY    32  32 100 CALM      29.67S
ASHLAND        PTCLDY    41  36  82 S8        29.67S
HAYWARD        CLOUDY    40  37  89 CALM      29.68S
SIREN          PTCLDY    36  35  96 CALM      29.68S
CUMBERLAND     PTCLDY    37  36  93 CALM      29.68F FOG
RICE LAKE      PTCLDY    38  36  93 CALM      29.69S
CHETEK         PTCLDY    40  39  93 E9        29.69S WCI  35
LADYSMITH      MOCLDY    40  35  83 SE3       29.71S
EAU CLAIRE     NOT AVBL
MENOMONIE      MOCLDY    42  38  84 SE5       29.68F
NEW RICHMOND   CLOUDY    40  39  95 CALM      29.68R
OSCEOLA        NOT AVBL
$$

WIZ003>005-009-010-017-018-220800-
NORTH CENTRAL WISCONSIN

CITY           SKY/WX    TMP DP  RH WIND       PRES   REMARKS
MANITOWISH WTR CLOUDY    45  35  67 SW3       29.69S
ARBOR VITAE    CLOUDY    44  34  68 S5          N/A
WOODRUFF       CLOUDY    44  34  68 S5          N/A
RHINELANDER    PTCLDY    47  34  60 SW9       29.71S
EAGLE RIVER    CLOUDY    46  31  56 SW6       29.70R
LAND O LAKES   CLOUDY    45  32  61 CALM      29.71S
PHILLIPS       CLOUDY    41  35  79 S3        29.69S
TOMAHAWK       PTCLDY    44  32  63 CALM      29.72R
MEDFORD        CLEAR     43  35  71 S8        29.70S
MERRILL        NOT AVBL
$$

WIZ029-030-035-036-043>047-220800-
CENTRAL WISCONSIN

CITY           SKY/WX    TMP DP  RH WIND       PRES   REMARKS
WAUSAU         CLEAR     45  34  65 SW9       29.71F
MOSINEE        CLEAR     41  34  75 S8        29.73F
MARSHFIELD     CLEAR     44  35  70 SW5       29.71F
STEVENS POINT  CLEAR     41  33  74 S5        29.75F
WAUPACA        CLOUDY    47  35  63 S3        29.75F
WAUTOMA        CLEAR     40  35  83 S3        29.76F
WISC RAPIDS    CLEAR     45  36  70 SW6       29.74F
CAMP DOUGLAS   NOT AVBL
$$

WIZ011>013-019>022-031-037>040-048>050-220800-
NORTHEAST WISCONSIN

CITY           SKY/WX    TMP DP  RH WIND       PRES   REMARKS
ANTIGO         CLEAR     42  33  69 SW8       29.73S
SHAWANO        CLOUDY    50  37  60 CALM      29.74F
OCONTO         MOCLDY    42  35  77 SE3       29.74F
STURGEON BAY   CLOUDY    47  40  76 S8        29.75
GREEN BAY      CLOUDY    47  38  71 S5        29.76F
MANITOWOC      NOT AVBL
APPLETON       CLOUDY    45  34  65 S9        29.75S
CLINTONVILLE   CLOUDY    43  36  75 S3        29.74F
OSHKOSH        CLOUDY    49  39  68 SW12      29.76F
$$

WIZ032>034-041-042-053>061-220800-
SOUTHWEST WISCONSIN

CITY           SKY/WX    TMP DP  RH WIND       PRES   REMARKS
LA CROSSE      CLEAR     50  39  66 S13       29.72F
SPARTA         CLEAR     48  38  69 S3        29.74F
VIROQUA        CLEAR     45  37  73 S8        29.75F
BOSCOBEL       CLEAR     37  34  89 CALM      29.78F
PRAIRIE DU CHI CLEAR     38  35  86 CALM      29.77F
PLATTEVILLE    CLEAR     44  40  86 S8        29.80F
$$

WIZ056-057-062-063-064-067-068-220800-
SOUTH CENTRAL WISCONSIN

CITY           SKY/WX    TMP DP  RH WIND       PRES   REMARKS
REEDSBURG      CLEAR     49  39  67 S9        29.76F
BARABOO/DELLS  CLEAR     49  37  62 S10       29.77F
LONE ROCK      NOT AVBL
MINERAL POINT  CLEAR     46  39  76 S8        29.80F
MADISON        PTCLDY    40  36  86 MISG      29.79F
MIDDLETON      PTCLDY    50  41  70 SW8       29.80S
WATERTOWN      CLEAR     44  39  82 S3        29.80S
MONROE         CLEAR     46  43  87 S13       29.81S
JANESVILLE     CLEAR     46  45  93 S7        29.81F
$$

WIZ051-052-058>065-066-070>072-220800-
SOUTHEAST WISCONSIN

CITY           SKY/WX    TMP DP  RH WIND       PRES   REMARKS
MILWAUKEE      PTCLDY    43  38  82 CALM      29.81F
WAUKESHA       CLEAR     43  37  81 S5        29.82F
MILWAUKEE/TIMM CLEAR     43  37  81 CALM      29.81S
RACINE         CLEAR     45  42  89 SW7       29.83F FOG
KENOSHA        CLEAR     47  45  93 SW7       29.82S FOG
FOND DU LAC    CLOUDY    51  37  58 SW10      29.77F
SHEBOYGAN      CLOUDY    45  39  79 SW7       29.78F
WEST BEND      PTCLDY    43  39  87 CALM      29.79F
JUNEAU         CLEAR     45  38  75 S7        29.81S
$$

LSZ147-162-220800-
LAKE SUPERIOR

STATION/POSITION TIME  TEMP    WIND        PRES    WAVE
                       AIR SEA DIR/SP/G            HT/PER
                 (UTC) (F)     (DEG/KT/KT) (MB)    (FT/S)
DEVILS ISLAND    0600   36     340/  6/  6 1005.5R
PORT WING        0640   34     160/  4/  5 1005.1R
SAXON HARBOR     0630   41      CALM  /  6 1004.4F
$$

LMZ867-665-643>646-220800-
LAKE MICHIGAN

STATION/POSITION TIME  TEMP    WIND        PRES    WAVE
                       AIR SEA DIR/SP/G            HT/PER
                 (UTC) (F)     (DEG/KT/KT) (MB)    (FT/S)
CHAMBERS ISLAND  0640   45     170/  4/ 10 1007.1F
NORTHPORT PIER   0640   45      CALM  /  8 1007.8F
SISTER BAY       0605   47     180/ 14/ 16   N/A
ALGOMA LAKESHORE 0555          220/  8/ 10   N/A
KEWAUNEE LAKESHO 0630   38     190/  7/  8 1008.0F
SHEBOYGAN LAKESH 0600   41     170/ 12/ 13 1009.2F
PORT WASHINGTON  0630   40      CALM  /  4 1010.2F
MILWAUKEE LAKESH 0630   42     190/  5/  6   N/A
KENOSHA   LAKESH 0600   41     160/  6/  9 1010.2
$$

TC  - TEMPERATURE IN CELSIUS
VSB - VISIBILITY IN STATUTE MILES
WCI - WIND CHILL INDEX
HX  - HEAT INDEX





USA.gov is the U.S. government's official web portal to all federal, state and local government web resources and services.